YO8SDE-8 Weather Reports


time (UTC)temp
F
wind
direction
speed
knots
gust
knots
rain 1hr
in
rain 24hr
in
rain mn
in
humidity
%
barometer
mb
20260906053107 62 292 0.0 0.0 0.00 0.00 0.00 79 1006.4
20260906052607 63 292 0.0 0.0 0.00 0.00 0.00 83 1006.3
20260906052107 62 292 0.0 0.0 0.00 0.00 0.00 85 1006.3
20260906051607 61 270 0.0 0.0 0.00 0.00 0.00 86 1006.2
20260906051107 61 315 0.0 0.0 0.00 0.00 0.00 88 1006.2
20260906050607 61 270 0.0 0.0 0.00 0.00 0.00 88 1006.1
20260906050107 61 270 0.0 0.0 0.00 0.00 0.00 89 1006.0
20260906045607 61 270 0.0 0.0 0.00 0.00 0.00 89 1006.0
20260906045107 60 270 0.0 0.0 0.00 0.00 0.00 90 1006.1
20260906044607 60 270 0.0 0.0 0.00 0.00 0.00 91 1006.0
20260906044107 59 270 0.0 0.0 0.00 0.00 0.00 91 1005.9
20260906043607 59 270 0.0 0.0 0.00 0.00 0.00 91 1005.9
20260906043108 59 292 0.0 0.0 0.00 0.00 0.00 91 1005.9
20260906042607 58 270 0.0 0.0 0.00 0.00 0.00 91 1005.9
20260906042107 58 270 0.0 0.0 0.00 0.00 0.00 91 1006.0
20260906041607 58 270 0.0 0.0 0.00 0.00 0.00 91 1006.1
20260906041107 59 270 0.0 0.0 0.00 0.00 0.00 91 1005.9
20260906040607 59 270 0.0 0.0 0.00 0.00 0.00 91 1005.9
20260906040107 59 270 0.0 0.0 0.00 0.00 0.00 91 1005.9
20260906035608 59 247 0.0 0.0 0.00 0.00 0.00 92 1005.7
20260906035107 58 225 0.0 0.0 0.00 0.00 0.00 92 1005.6
20260906034607 58 225 0.0 0.0 0.00 0.00 0.00 92 1005.6
20260906034107 58 225 0.0 0.0 0.00 0.00 0.00 92 1005.6
20260906033607 59 247 0.0 0.0 0.00 0.00 0.00 92 1005.6
20260906033108 59 270 0.0 0.0 0.00 0.00 0.00 92 1005.6
20260906032607 58 270 0.0 0.0 0.00 0.00 0.00 92 1005.5
20260906032108 58 270 0.0 0.0 0.00 0.00 0.00 93 1005.6
20260906031607 58 270 0.0 0.0 0.00 0.00 0.00 93 1005.5
20260906031108 58 270 0.0 0.0 0.00 0.00 0.00 93 1005.6
20260906030608 58 270 0.0 0.0 0.00 0.00 0.00 93 1005.5
20260906030107 58 270 0.0 0.0 0.00 0.00 0.00 94 1005.6
20260906025608 58 315 0.0 0.0 0.00 0.00 0.00 94 1005.6
20260906025108 57 292 0.0 0.0 0.00 0.00 0.00 94 1005.1
20260906024607 57 225 0.0 0.0 0.00 0.00 0.00 94 1004.9
20260906024108 57 247 0.0 0.0 0.00 0.00 0.00 94 1004.9
20260906023608 57 270 0.0 0.0 0.00 0.00 0.00 94 1004.8
20260906023108 56 315 0.0 0.0 0.00 0.00 0.00 93 1004.8
20260906022608 55 315 0.0 0.0 0.00 0.00 0.00 93 1004.7
20260906022108 55 315 0.0 0.0 0.00 0.00 0.00 93 1004.6
20260906021608 54 315 0.0 0.0 0.00 0.00 0.00 93 1004.7
20260906021108 54 315 0.0 0.0 0.00 0.00 0.00 93 1004.7
20260906020608 54 270 0.0 0.0 0.00 0.00 0.00 93 1004.9
20260906020108 54 270 0.0 0.0 0.00 0.00 0.00 93 1004.9
20260906015608 54 270 0.0 0.0 0.00 0.00 0.00 93 1004.9
20260906015108 54 270 0.0 0.0 0.00 0.00 0.00 93 1004.9
20260906014608 54 270 0.0 0.0 0.00 0.00 0.00 93 1004.9
20260906014108 54 270 0.0 0.0 0.00 0.00 0.00 93 1004.8
20260906013608 54 270 0.0 0.0 0.00 0.00 0.00 93 1004.9
20260906013108 54 270 0.0 0.0 0.00 0.00 0.00 93 1004.9
20260906012608 55 270 0.0 0.0 0.00 0.00 0.00 93 1004.9
20260906012108 54 270 0.0 0.0 0.00 0.00 0.00 93 1004.8
20260906011608 54 270 0.0 0.0 0.00 0.00 0.00 92 1004.9
20260906011108 54 270 0.0 0.0 0.00 0.00 0.00 92 1004.9
20260906010608 55 270 0.0 0.0 0.00 0.00 0.00 93 1004.9
20260906010108 54 270 0.0 0.0 0.00 0.00 0.00 92 1005.0
20260906005608 54 270 0.0 0.0 0.00 0.00 0.00 92 1004.9
20260906005108 55 270 0.0 0.0 0.00 0.00 0.00 93 1004.9
20260906004608 55 270 0.0 0.0 0.00 0.00 0.00 93 1004.9
20260906004108 55 270 0.0 0.0 0.00 0.00 0.00 93 1004.9
20260906003608 55 270 0.0 0.0 0.00 0.00 0.00 93 1004.9
20260906003108 55 270 0.0 0.0 0.00 0.00 0.00 92 1004.9
20260906002608 55 270 0.0 0.0 0.00 0.00 0.00 92 1005.0
20260906002108 55 270 0.0 0.0 0.00 0.00 0.00 92 1004.9
20260906001608 55 270 0.0 0.0 0.00 0.00 0.00 92 1004.9
20260906001108 55 270 0.0 0.0 0.00 0.00 0.00 92 1004.9
20260906000608 55 270 0.0 0.0 0.00 0.00 0.00 92 1005.1
20260906000108 55 270 0.0 0.0 0.00 0.00 0.00 92 1005.1
20260905235608 55 270 0.0 0.0 0.00 0.00 0.00 92 1005.1
20260905235108 56 270 0.0 0.0 0.00 0.00 0.00 92 1005.1
20260905234608 56 270 0.0 0.0 0.00 0.00 0.00 92 1005.1
20260905234108 55 270 0.0 0.0 0.00 0.00 0.00 92 1005.0
20260905233608 55 247 0.0 0.0 0.00 0.00 0.00 91 1005.0
20260905233108 55 247 0.0 0.0 0.00 0.00 0.00 91 1005.0
20260905232608 55 247 0.0 0.0 0.00 0.00 0.00 91 1005.2
20260905232108 55 247 0.0 0.0 0.00 0.00 0.00 91 1005.0
20260905231608 55 247 0.0 0.0 0.00 0.00 0.00 91 1005.3
20260905231108 55 247 0.0 0.0 0.00 0.00 0.00 90 1005.4
20260905230608 55 247 0.0 0.0 0.00 0.00 0.00 91 1005.4
20260905230108 55 247 0.0 0.0 0.00 0.00 0.00 91 1005.4
20260905225608 56 247 0.0 0.0 0.00 0.00 0.00 91 1005.4
20260905225108 56 247 0.0 0.0 0.00 0.00 0.00 91 1005.4
20260905224608 56 247 0.0 0.0 0.00 0.00 0.00 91 1005.4
20260905224108 56 247 0.0 0.0 0.00 0.00 0.00 90 1005.3
20260905223608 56 247 0.0 0.0 0.00 0.00 0.00 91 1005.4
20260905223108 56 247 0.0 0.0 0.00 0.00 0.00 91 1005.5
20260905222608 57 247 0.0 0.0 0.00 0.00 0.00 90 1005.3
20260905222108 57 247 0.0 0.0 0.00 0.00 0.00 90 1005.4
20260905221608 57 247 0.0 0.0 0.00 0.00 0.00 90 1005.4
20260905221108 57 247 0.0 0.0 0.00 0.00 0.00 90 1005.4
20260905220608 57 247 0.0 0.0 0.00 0.00 0.00 90 1005.5
20260905220108 58 247 0.0 0.0 0.00 0.00 0.00 90 1005.4
20260905215608 58 247 0.0 0.0 0.00 0.00 0.00 90 1005.5
20260905215108 58 247 0.0 0.0 0.00 0.00 0.00 91 1005.2
20260905214608 58 247 0.0 0.0 0.00 0.00 0.00 91 1005.3
20260905214108 59 247 0.0 0.0 0.00 0.00 0.00 91 1005.3
20260905213608 59 247 0.0 0.0 0.00 0.00 0.00 91 1005.2
20260905213108 58 247 0.0 0.0 0.00 0.00 0.00 91 1005.2
20260905212608 58 247 0.0 0.0 0.00 0.00 0.00 91 1005.2
20260905212108 58 247 0.0 0.0 0.00 0.00 0.00 91 1005.1
20260905211608 58 247 0.0 0.0 0.00 0.00 0.00 90 1005.0
20260905211108 58 247 0.0 0.0 0.00 0.00 0.00 90 1004.8
20260905210608 59 247 0.0 0.0 0.00 0.00 0.00 90 1004.9
20260905210108 59 247 0.0 0.0 0.00 0.00 0.00 90 1004.9
20260905205608 59 247 0.0 0.0 0.00 0.00 0.00 90 1005.0
20260905205108 59 247 0.0 0.0 0.00 0.00 0.00 90 1005.0
20260905204608 59 247 0.0 0.0 0.00 0.00 0.00 89 1004.9
20260905204108 59 247 0.0 0.0 0.00 0.00 0.00 89 1004.9
20260905203608 59 247 0.0 0.0 0.00 0.00 0.00 89 1004.8
20260905203108 59 247 0.0 0.0 0.00 0.00 0.00 89 1004.7
20260905202608 59 247 0.0 0.0 0.00 0.00 0.00 89 1004.8
20260905202108 60 247 0.0 0.0 0.00 0.00 0.00 89 1004.7
20260905201608 60 247 0.0 0.0 0.00 0.00 0.00 89 1004.6
20260905201108 60 247 0.0 0.0 0.00 0.00 0.00 89 1004.5
20260905200608 60 247 0.0 0.0 0.00 0.00 0.00 89 1004.5
20260905200108 60 247 0.0 0.0 0.00 0.00 0.00 89 1004.4
20260905195608 60 247 0.0 0.0 0.00 0.00 0.00 89 1004.4
20260905195108 60 247 0.0 0.0 0.00 0.00 0.00 89 1004.4
20260905194608 60 225 0.0 0.0 0.00 0.00 0.00 88 1004.4
20260905194108 60 225 0.0 0.0 0.00 0.00 0.00 88 1004.4
20260905193608 60 247 0.0 0.0 0.00 0.00 0.00 88 1004.4
20260905193108 60 247 0.0 0.0 0.00 0.00 0.00 88 1004.3
20260905192608 61 247 0.0 0.0 0.00 0.00 0.00 88 1004.4
20260905192108 61 247 0.0 0.0 0.00 0.00 0.00 88 1004.4
20260905191608 61 247 0.0 0.0 0.00 0.00 0.00 88 1004.5
20260905191108 61 247 0.0 0.0 0.00 0.00 0.00 88 1004.5
20260905190608 61 247 0.0 0.0 0.00 0.00 0.00 88 1004.5
20260905190108 62 247 0.0 0.0 0.00 0.00 0.00 88 1004.7
20260905185608 62 225 0.0 0.0 0.00 0.00 0.00 88 1004.8
20260905185108 62 247 0.0 0.0 0.00 0.00 0.00 88 1004.9
20260905184608 61 247 0.0 0.0 0.00 0.00 0.00 88 1004.9
20260905184108 61 247 0.0 0.0 0.00 0.00 0.00 88 1004.9
20260905183608 61 247 0.0 0.0 0.00 0.00 0.00 88 1004.9
20260905183108 62 247 0.0 0.0 0.00 0.00 0.00 88 1004.9
20260905182608 62 247 0.0 0.0 0.00 0.00 0.00 88 1004.8
20260905182108 62 247 0.0 0.0 0.00 0.00 0.00 88 1004.7
20260905181608 61 247 0.0 0.0 0.00 0.00 0.00 88 1004.5
20260905181108 61 247 0.0 0.0 0.00 0.00 0.00 88 1004.5
20260905180608 61 270 0.0 0.0 0.00 0.00 0.00 88 1004.5
20260905180108 62 270 0.0 0.0 0.00 0.00 0.00 87 1004.4
20260905175608 62 270 0.0 0.0 0.00 0.00 0.00 87 1004.2
20260905175108 62 270 0.0 0.0 0.00 0.00 0.00 88 1004.2
20260905174608 62 270 0.0 0.0 0.00 0.00 0.00 88 1004.0
20260905174108 62 270 0.0 0.0 0.00 0.00 0.00 88 1003.9
20260905173608 62 270 0.0 0.0 0.00 0.00 0.00 88 1003.9
20260905173108 63 270 0.0 0.0 0.00 0.00 0.00 88 1003.7
20260905172608 63 270 0.0 0.0 0.00 0.00 0.00 88 1003.8
20260905172108 63 270 0.0 0.0 0.00 0.00 0.00 88 1003.6
20260905171608 63 270 0.0 0.0 0.00 0.00 0.00 88 1003.4
20260905171108 63 292 0.0 0.0 0.00 0.00 0.00 88 1003.3
20260905170608 64 292 0.0 0.0 0.00 0.00 0.00 89 1003.3
20260905170108 64 270 0.0 0.0 0.00 0.00 0.00 89 1003.3
20260905165608 64 270 0.0 0.0 0.00 0.00 0.00 88 1003.3
20260905165108 64 292 0.0 0.0 0.00 0.00 0.00 88 1003.3
20260905164608 64 270 0.0 0.0 0.00 0.00 0.00 88 1003.4
20260905164108 64 270 0.0 0.0 0.00 0.00 0.00 87 1003.6
20260905163608 64 247 0.0 0.0 0.00 0.00 0.00 87 1003.5
20260905163108 64 292 0.0 0.0 0.00 0.00 0.00 87 1003.6
20260905162608 65 292 0.0 0.0 0.00 0.00 0.00 87 1003.5
20260905162108 65 270 0.0 0.0 0.00 0.00 0.00 88 1003.6
20260905161608 65 247 0.0 0.0 0.00 0.00 0.00 88 1003.5
20260905161108 65 270 0.0 0.0 0.00 0.00 0.00 89 1003.5
20260905160608 64 270 0.0 0.0 0.00 0.00 0.00 88 1003.7
20260905160108 64 247 0.0 0.0 0.00 0.00 0.00 89 1003.4
20260905155608 64 247 0.0 0.0 0.00 0.00 0.00 88 1003.2
20260905155108 64 270 0.0 0.0 0.00 0.00 0.00 88 1003.3
20260905154608 64 270 0.0 0.0 0.00 0.00 0.00 86 1002.9
20260905154108 64 292 0.0 0.0 0.00 0.00 0.00 86 1002.9
20260905153608 65 292 0.0 0.0 0.00 0.00 0.00 83 1002.8
20260905153108 65 315 0.0 0.0 0.00 0.00 0.00 82 1003.1
20260905152608 66 292 0.0 0.0 0.00 0.00 0.00 79 1002.9
20260905152108 66 270 0.0 0.0 0.00 0.00 0.00 77 1003.1
20260905151608 64 270 0.0 0.0 0.00 0.00 0.00 69 1003.3
20260905151108 69 315 0.0 0.0 0.00 0.00 0.00 65 1003.6
20260905150608 69 315 0.0 0.0 0.00 0.00 0.00 63 1003.3
20260905150108 69 292 0.0 0.0 0.00 0.00 0.00 62 1002.8
20260905145608 69 315 0.0 0.0 0.00 0.00 0.00 61 1002.5
20260905145108 69 270 0.0 0.0 0.00 0.00 0.00 60 1002.6
20260905144608 70 292 0.0 0.0 0.00 0.00 0.00 60 1002.8
20260905144108 71 292 0.0 0.0 0.00 0.00 0.00 58 1002.8
20260905143608 71 292 0.0 0.0 0.00 0.00 0.00 58 1003.0
20260905143108 71 292 0.0 0.0 0.00 0.00 0.00 57 1003.3
20260905142608 72 292 0.0 0.0 0.00 0.00 0.00 56 1003.2
20260905142108 73 247 0.0 0.0 0.00 0.00 0.00 54 1002.9
20260905141608 73 270 0.0 0.0 0.00 0.00 0.00 53 1002.7
20260905141108 74 270 0.0 0.0 0.00 0.00 0.00 52 1002.5
20260905140608 74 315 0.0 0.0 0.00 0.00 0.00 52 1002.3
20260905140108 75 337 0.0 0.0 0.00 0.00 0.00 50 1002.3
20260905135608 75 292 0.0 0.0 0.00 0.00 0.00 49 1002.2
20260905135108 77 270 0.0 0.0 0.00 0.00 0.00 49 1002.0
20260905134608 78 292 0.0 0.0 0.00 0.00 0.00 47 1002.1
20260905134108 78 0 0.0 0.0 0.00 0.00 0.00 50 1002.1
20260905133608 76 292 0.0 0.0 0.00 0.00 0.00 55 1001.9
20260905133108 74 270 0.0 0.0 0.00 0.00 0.00 60 1002.0
20260905132608 69 315 0.0 0.0 0.00 0.00 0.00 65 1002.0
20260905132108 66 292 0.0 0.0 0.00 0.00 0.00 64 1002.2
20260905131608 63 247 0.0 0.0 0.00 0.00 0.00 65 1002.2
20260905131108 62 292 0.0 0.0 0.00 0.00 0.00 68 1002.1
20260905130608 61 247 0.0 0.0 0.00 0.00 0.00 68 1002.1
20260905130108 66 270 0.0 0.0 0.00 0.00 0.00 71 1002.2
20260905125608 68 270 0.0 0.0 0.00 0.00 0.00 67 1002.3
20260905125108 71 270 0.0 0.0 0.00 0.00 0.00 61 1002.3
20260905124608 73 270 0.0 0.0 0.00 0.00 0.00 56 1002.0
20260905124108 78 270 0.0 0.0 0.00 0.00 0.00 50 1002.2
20260905123608 80 315 0.0 0.0 0.00 0.00 0.00 48 1001.9
20260905123108 81 292 0.0 0.0 0.00 0.00 0.00 47 1001.8
20260905122608 80 247 0.0 0.0 0.00 0.00 0.00 48 1001.5
20260905122108 82 270 0.0 0.0 0.00 0.00 0.00 45 1001.5
20260905121608 84 270 0.0 0.0 0.00 0.00 0.00 44 1000.9
20260905121108 86 315 0.0 0.0 0.00 0.00 0.00 43 1000.9
20260905120608 88 292 0.0 0.0 0.00 0.00 0.00 42 1000.8
20260905120108 88 270 0.0 0.0 0.00 0.00 0.00 41 1000.8
20260905115608 89 292 0.0 0.0 0.00 0.00 0.00 40 1000.4
20260905115108 91 315 0.0 0.0 0.00 0.00 0.00 39 1000.4
20260905114608 92 315 0.0 0.0 0.00 0.00 0.00 38 1000.3
20260905114108 94 315 0.0 0.0 0.00 0.00 0.00 34 1000.2
20260905113608 101 315 0.0 0.0 0.00 0.00 0.00 30 1000.0
20260905113108 105 337 0.0 0.0 0.00 0.00 0.00 28 1000.0
20260905112608 103 315 0.0 0.0 0.00 0.00 0.00 28 1000.0
20260905112108 102 337 0.0 0.0 0.00 0.00 0.00 28 1000.0
20260905111608 103 315 0.0 0.0 0.00 0.00 0.00 27 1000.0
20260905111108 102 112 0.0 0.0 0.00 0.00 0.00 29 999.8
20260905110608 100 135 0.0 0.0 0.00 0.00 0.00 29 999.8
20260905110108 102 202 0.0 0.0 0.00 0.00 0.00 28 999.9
20260905105608 105 112 0.0 0.0 0.00 0.00 0.00 27 999.8
20260905105108 105 135 0.0 0.0 0.00 0.00 0.00 27 999.7
20260905104608 104 135 0.0 0.0 0.00 0.00 0.00 28 999.8
20260905104108 104 112 0.0 0.0 0.00 0.00 0.00 28 999.9
20260905103608 106 112 0.0 0.0 0.00 0.00 0.00 27 999.9
20260905103108 104 157 0.0 0.0 0.00 0.00 0.00 28 999.8
20260905102608 105 157 0.0 0.0 0.00 0.00 0.00 28 999.9
20260905102108 105 180 0.0 0.0 0.00 0.00 0.00 28 999.8
20260905101608 105 112 0.0 0.0 0.00 0.00 0.00 28 999.9
20260905101108 103 135 0.0 0.0 0.00 0.00 0.00 29 999.8
20260905100608 101 225 0.0 0.0 0.00 0.00 0.00 30 999.8
20260905100108 101 157 0.0 0.0 0.00 0.00 0.00 30 999.8
20260905095608 101 112 0.0 0.0 0.00 0.00 0.00 31 999.6
20260905095108 100 180 0.0 0.0 0.00 0.00 0.00 31 999.6
20260905094608 98 157 0.0 0.0 0.00 0.00 0.00 32 999.6
20260905094108 98 157 0.0 0.0 0.00 0.00 0.00 32 999.6
20260905093608 96 157 0.0 0.0 0.00 0.00 0.00 33 999.6
20260905093108 96 202 0.0 0.0 0.00 0.00 0.00 33 999.7
20260905092608 98 157 0.0 0.0 0.00 0.00 0.00 32 999.7
20260905092108 98 247 0.0 0.0 0.00 0.00 0.00 33 999.6
20260905091608 97 225 0.0 0.0 0.00 0.00 0.00 34 999.6
20260905091108 94 157 0.0 0.0 0.00 0.00 0.00 37 999.5
20260905090608 93 157 0.0 0.0 0.00 0.00 0.00 36 999.7
20260905090108 95 157 0.0 0.0 0.00 0.00 0.00 35 999.6
20260905085608 96 202 0.0 0.0 0.00 0.00 0.00 34 999.8
20260905085108 98 180 0.0 0.0 0.00 0.00 0.00 33 1000.0
20260905084608 96 225 0.0 0.0 0.00 0.00 0.00 35 999.8
20260905084108 93 180 0.0 0.0 0.00 0.00 0.00 39 999.7
20260905083608 92 202 0.0 0.0 0.00 0.00 0.00 40 999.7
20260905083108 90 135 0.0 0.0 0.00 0.00 0.00 42 999.8
20260905082608 86 157 0.0 0.0 0.00 0.00 0.00 45 999.8
20260905082108 85 157 0.0 0.0 0.00 0.00 0.00 45 1000.0
20260905081608 85 157 0.0 0.0 0.00 0.00 0.00 45 1000.2
20260905081108 85 157 0.0 0.0 0.00 0.00 0.00 44 1000.0
20260905080608 86 157 0.0 0.0 0.00 0.00 0.00 43 1000.0
20260905080108 87 135 0.0 0.0 0.00 0.00 0.00 42 1000.0
20260905075609 87 180 0.0 0.0 0.00 0.00 0.00 42 1000.1
20260905075108 87 157 0.0 0.0 0.00 0.00 0.00 42 1000.0
20260905074609 87 157 0.0 0.0 0.00 0.00 0.00 42 999.9
20260905074108 88 135 0.0 0.0 0.00 0.00 0.00 41 1000.0
20260905073608 89 180 0.0 0.0 0.00 0.00 0.00 39 1000.0
20260905073108 91 202 0.0 0.0 0.00 0.00 0.00 39 1000.0
20260905072609 92 112 0.0 0.0 0.00 0.00 0.00 39 1000.2
20260905072109 90 202 0.0 0.0 0.00 0.00 0.00 41 1000.0
20260905071609 89 225 0.0 0.0 0.00 0.00 0.00 41 1000.1
20260905071108 90 225 0.0 0.0 0.00 0.00 0.00 41 1000.4
20260905070608 90 202 0.0 0.0 0.00 0.00 0.00 41 1000.1
20260905070109 88 202 0.0 0.0 0.00 0.00 0.00 43 1000.3
20260905065608 87 270 0.0 0.0 0.00 0.00 0.00 43 1000.4
20260905065108 86 202 0.0 0.0 0.00 0.00 0.00 45 1000.4
20260905064609 84 202 0.0 0.0 0.00 0.00 0.00 46 1000.4
20260905064109 83 112 0.0 0.0 0.00 0.00 0.00 46 1000.5
20260905063609 82 225 0.0 0.0 0.00 0.00 0.00 47 1000.5
20260905063109 82 202 0.0 0.0 0.00 0.00 0.00 47 1000.6
20260905062609 82 225 0.0 0.0 0.00 0.00 0.00 47 1000.6
20260905062109 81 157 0.0 0.0 0.00 0.00 0.00 50 1000.4
20260905061609 80 225 0.0 0.0 0.00 0.00 0.00 50 1000.6
20260905061109 79 225 0.0 0.0 0.00 0.00 0.00 51 1000.5
20260905060609 78 180 0.0 0.0 0.00 0.00 0.00 53 1000.5
20260905060109 78 225 0.0 0.0 0.00 0.00 0.00 53 1000.6
20260905055609 77 90 0.0 0.0 0.00 0.00 0.00 55 1000.4
20260905055109 77 202 0.0 0.0 0.00 0.00 0.00 56 1000.5
20260905054609 76 135 0.0 0.0 0.00 0.00 0.00 58 1000.5
20260905054109 75 202 0.0 0.0 0.00 0.00 0.00 58 1000.7
20260905053609 75 247 0.0 0.0 0.00 0.00 0.00 60 1000.8